Time,TemperatureF,DewpointF,PressureIn,WindDirection,WindDirectionDegrees,WindSpeedMPH,WindSpeedGustMPH,Humidity,HourlyPrecipIn,Conditions,Clouds,dailyrainin,SoftwareType,DateUTC
2013-02-19 00:07:00,43.9,38.0,30.07,WSW,244,0.0,-999.0,80,-99.99,,,0.05,weatherlink.com 1.10,2013-02-19 06:07:00,
2013-02-19 00:22:00,43.0,39.0,30.07,WSW,242,0.0,-999.0,86,-99.99,,,0.09,weatherlink.com 1.10,2013-02-19 06:22:00,
2013-02-19 00:37:00,42.5,39.0,30.07,WSW,242,0.0,-999.0,88,-99.99,,,0.14,weatherlink.com 1.10,2013-02-19 06:37:00,
2013-02-19 00:52:00,42.2,40.0,30.09,WSW,242,0.0,-999.0,90,-99.99,,,0.19,weatherlink.com 1.10,2013-02-19 06:52:00,
2013-02-19 01:07:00,42.0,40.0,30.11,WSW,244,0.0,-999.0,92,-99.99,,,0.24,weatherlink.com 1.10,2013-02-19 07:07:00,
2013-02-19 01:22:00,41.9,40.0,30.10,SSW,209,2.0,-999.0,93,-99.99,,,0.30,weatherlink.com 1.10,2013-02-19 07:22:00,
2013-02-19 01:38:00,42.2,40.0,30.09,SSW,197,3.0,-999.0,92,-99.99,,,0.36,weatherlink.com 1.10,2013-02-19 07:38:00,
2013-02-19 01:52:00,42.5,40.0,30.09,SSW,207,13.0,-999.0,92,-99.99,,,0.41,weatherlink.com 1.10,2013-02-19 07:52:00,
2013-02-19 02:08:00,42.4,41.0,30.07,SSW,195,7.0,-999.0,93,-99.99,,,0.46,weatherlink.com 1.10,2013-02-19 08:08:00,
2013-02-19 02:22:00,42.5,41.0,30.06,South,172,8.0,-999.0,93,-99.99,,,0.51,weatherlink.com 1.10,2013-02-19 08:22:00,
2013-02-19 02:38:00,42.2,41.0,30.04,SSW,195,12.0,-999.0,94,-99.99,,,0.54,weatherlink.com 1.10,2013-02-19 08:38:00,
2013-02-19 02:52:00,42.2,41.0,30.04,SSW,206,7.0,-999.0,94,-99.99,,,0.55,weatherlink.com 1.10,2013-02-19 08:52:00,
2013-02-19 03:07:00,42.9,42.0,30.02,South,184,6.0,-999.0,95,-99.99,,,0.55,weatherlink.com 1.10,2013-02-19 09:07:00,
2013-02-19 03:22:00,43.4,42.0,30.02,SSW,201,11.0,-999.0,94,-99.99,,,0.56,weatherlink.com 1.10,2013-02-19 09:22:00,
2013-02-19 03:38:00,43.5,42.0,30.01,SSW,195,9.0,-999.0,94,-99.99,,,0.58,weatherlink.com 1.10,2013-02-19 09:38:00,
2013-02-19 03:53:00,43.5,42.0,30.00,SSW,209,7.0,-999.0,94,-99.99,,,0.58,weatherlink.com 1.10,2013-02-19 09:53:00,
2013-02-19 04:08:00,43.7,42.0,30.00,SSW,207,6.0,-999.0,95,-99.99,,,0.58,weatherlink.com 1.10,2013-02-19 10:08:00,
2013-02-19 04:23:00,44.0,43.0,30.00,SSW,198,4.0,-999.0,95,-99.99,,,0.58,weatherlink.com 1.10,2013-02-19 10:23:00,
2013-02-19 04:37:00,44.5,43.0,30.01,SW,217,4.0,-999.0,95,-99.99,,,0.58,weatherlink.com 1.10,2013-02-19 10:37:00,
2013-02-19 04:53:00,44.7,43.0,30.02,WSW,240,3.0,-999.0,95,-99.99,,,0.58,weatherlink.com 1.10,2013-02-19 10:53:00,
2013-02-19 05:07:00,44.7,43.0,30.02,SW,215,6.0,-999.0,95,-99.99,,,0.60,weatherlink.com 1.10,2013-02-19 11:07:00,
2013-02-19 05:22:00,44.9,44.0,30.05,WNW,299,3.0,-999.0,95,-99.99,,,0.00,weatherlink.com 1.10,2013-02-19 11:22:00,
2013-02-19 05:38:00,44.8,44.0,30.05,WNW,284,0.0,-999.0,95,-99.99,,,0.00,weatherlink.com 1.10,2013-02-19 11:38:00,
2013-02-19 05:53:00,44.7,43.0,30.06,West,266,0.0,-999.0,95,-99.99,,,0.01,weatherlink.com 1.10,2013-02-19 11:53:00,
2013-02-19 06:08:00,44.7,43.0,30.06,WSW,257,0.0,-999.0,95,-99.99,,,0.01,weatherlink.com 1.10,2013-02-19 12:08:00,
2013-02-19 06:23:00,44.9,44.0,30.06,West,259,4.0,-999.0,96,-99.99,,,0.02,weatherlink.com 1.10,2013-02-19 12:23:00,
2013-02-19 06:38:00,44.9,44.0,30.07,WSW,250,3.0,-999.0,96,-99.99,,,0.03,weatherlink.com 1.10,2013-02-19 12:38:00,
2013-02-19 06:53:00,45.1,44.0,30.08,West,273,0.0,-999.0,96,-99.99,,,0.04,weatherlink.com 1.10,2013-02-19 12:53:00,
2013-02-19 07:08:00,45.3,44.0,30.08,WNW,300,2.0,-999.0,96,-99.99,,,0.04,weatherlink.com 1.10,2013-02-19 13:08:00,
2013-02-19 07:23:00,45.2,44.0,30.09,NW,319,6.0,-999.0,96,-99.99,,,0.05,weatherlink.com 1.10,2013-02-19 13:23:00,
2013-02-19 07:53:00,44.4,43.0,30.10,WNW,302,5.0,-999.0,96,-99.99,,,0.05,weatherlink.com 1.10,2013-02-19 13:53:00,
2013-02-19 08:08:00,43.4,42.0,30.11,North,360,6.0,-999.0,95,-99.99,,,0.05,weatherlink.com 1.10,2013-02-19 14:08:00,
2013-02-19 08:23:00,40.4,39.0,30.13,NW,321,3.0,-999.0,94,-99.99,,,0.05,weatherlink.com 1.10,2013-02-19 14:23:00,
2013-02-19 08:38:00,40.0,38.0,30.13,NW,321,4.0,-999.0,93,-99.99,,,0.05,weatherlink.com 1.10,2013-02-19 14:38:00,
2013-02-19 08:54:00,39.8,37.0,30.14,North,360,2.0,-999.0,91,-99.99,,,0.05,weatherlink.com 1.10,2013-02-19 14:54:00,
2013-02-19 09:09:00,40.8,38.0,30.14,NW,313,4.0,-999.0,89,-99.99,,,0.05,weatherlink.com 1.10,2013-02-19 15:09:00,
2013-02-19 09:23:00,41.8,37.0,30.14,NW,325,7.0,-999.0,83,-99.99,,,0.05,weatherlink.com 1.10,2013-02-19 15:23:00,
2013-02-19 09:39:00,42.7,37.0,30.14,NNW,340,4.0,-999.0,81,-99.99,,,0.05,weatherlink.com 1.10,2013-02-19 15:39:00,
2013-02-19 09:53:00,43.1,37.0,30.15,North,355,6.0,-999.0,78,-99.99,,,0.05,weatherlink.com 1.10,2013-02-19 15:53:00,
2013-02-19 10:09:00,44.2,37.0,30.15,NNW,333,4.0,-999.0,77,-99.99,,,0.05,weatherlink.com 1.10,2013-02-19 16:09:00,
2013-02-19 10:25:00,44.5,35.0,30.16,NW,318,5.0,-999.0,70,-99.99,,,0.05,weatherlink.com 1.10,2013-02-19 16:25:00,
2013-02-19 10:41:00,45.2,35.0,30.16,NW,319,5.0,-999.0,68,-99.99,,,0.05,weatherlink.com 1.10,2013-02-19 16:41:00,
2013-02-19 10:57:00,46.0,37.0,30.15,NNW,327,8.0,-999.0,70,-99.99,,,0.05,weatherlink.com 1.10,2013-02-19 16:57:00,
2013-02-19 11:13:00,45.9,35.0,30.15,NW,321,6.0,-999.0,65,-99.99,,,0.05,weatherlink.com 1.10,2013-02-19 17:13:00,
2013-02-19 11:27:00,46.6,33.0,30.15,NW,305,7.0,-999.0,60,-99.99,,,0.05,weatherlink.com 1.10,2013-02-19 17:27:00,
2013-02-19 11:42:00,46.8,34.0,30.15,WNW,298,9.0,-999.0,62,-99.99,,,0.05,weatherlink.com 1.10,2013-02-19 17:42:00,
2013-02-19 11:58:00,47.8,35.0,30.15,NNW,338,9.0,-999.0,62,-99.99,,,0.05,weatherlink.com 1.10,2013-02-19 17:58:00,
2013-02-19 12:14:00,48.1,31.0,30.14,North,355,2.0,-999.0,52,-99.99,,,0.05,weatherlink.com 1.10,2013-02-19 18:14:00,
2013-02-19 12:30:00,48.9,32.0,30.14,NNW,333,5.0,-999.0,52,-99.99,,,0.05,weatherlink.com 1.10,2013-02-19 18:30:00,
2013-02-19 12:47:00,49.1,28.0,30.14,NNW,347,15.0,-999.0,45,-99.99,,,0.05,weatherlink.com 1.10,2013-02-19 18:47:00,
2013-02-19 13:04:00,49.3,29.0,30.14,NW,309,5.0,-999.0,46,-99.99,,,0.05,weatherlink.com 1.10,2013-02-19 19:04:00,
2013-02-19 13:19:00,49.9,32.0,30.14,West,281,5.0,-999.0,50,-99.99,,,0.05,weatherlink.com 1.10,2013-02-19 19:19:00,
2013-02-19 13:36:00,49.5,30.0,30.14,WNW,284,5.0,-999.0,47,-99.99,,,0.05,weatherlink.com 1.10,2013-02-19 19:36:00,
2013-02-19 13:53:00,49.3,24.0,30.14,NW,307,7.0,-999.0,38,-99.99,,,0.05,weatherlink.com 1.10,2013-02-19 19:53:00,
2013-02-19 14:10:00,49.5,26.0,30.15,NW,320,5.0,-999.0,40,-99.99,,,0.05,weatherlink.com 1.10,2013-02-19 20:10:00,
2013-02-19 14:25:00,49.3,23.0,30.15,NW,306,5.0,-999.0,36,-99.99,,,0.05,weatherlink.com 1.10,2013-02-19 20:25:00,
2013-02-19 14:42:00,49.1,26.0,30.15,WNW,298,4.0,-999.0,40,-99.99,,,0.05,weatherlink.com 1.10,2013-02-19 20:42:00,
2013-02-19 14:59:00,49.4,23.0,30.15,NNW,343,5.0,-999.0,36,-99.99,,,0.05,weatherlink.com 1.10,2013-02-19 20:59:00,
2013-02-19 15:32:00,48.8,23.0,30.16,NW,319,9.0,-999.0,36,-99.99,,,0.05,weatherlink.com 1.10,2013-02-19 21:32:00,
2013-02-19 15:48:00,49.2,22.0,30.17,NW,306,10.0,-999.0,35,-99.99,,,0.05,weatherlink.com 1.10,2013-02-19 21:48:00,
2013-02-19 16:05:00,48.2,19.0,30.17,NW,304,8.0,-999.0,31,-99.99,,,0.05,weatherlink.com 1.10,2013-02-19 22:05:00,
2013-02-19 16:21:00,47.9,19.0,30.18,NNW,333,3.0,-999.0,32,-99.99,,,0.05,weatherlink.com 1.10,2013-02-19 22:21:00,
2013-02-19 16:38:00,47.5,22.0,30.18,NW,315,5.0,-999.0,36,-99.99,,,0.05,weatherlink.com 1.10,2013-02-19 22:38:00,
2013-02-19 16:54:00,46.8,20.0,30.18,WNW,302,7.0,-999.0,35,-99.99,,,0.05,weatherlink.com 1.10,2013-02-19 22:54:00,
2013-02-19 17:09:00,45.8,18.0,30.18,NW,307,6.0,-999.0,33,-99.99,,,0.05,weatherlink.com 1.10,2013-02-19 23:09:00,
2013-02-19 17:24:00,45.0,17.0,30.19,NW,304,11.0,-999.0,33,-99.99,,,0.05,weatherlink.com 1.10,2013-02-19 23:24:00,
2013-02-19 17:39:00,44.4,16.0,30.20,NNW,333,7.0,-999.0,32,-99.99,,,0.05,weatherlink.com 1.10,2013-02-19 23:39:00,
2013-02-19 17:55:00,43.8,16.0,30.21,NNW,333,8.0,-999.0,32,-99.99,,,0.05,weatherlink.com 1.10,2013-02-19 23:55:00,
2013-02-19 18:10:00,43.3,16.0,30.21,NNW,333,0.0,-999.0,33,-99.99,,,0.05,weatherlink.com 1.10,2013-02-20 00:10:00,
2013-02-19 18:25:00,42.7,17.0,30.22,NW,304,0.0,-999.0,35,-99.99,,,0.05,weatherlink.com 1.10,2013-02-20 00:25:00,
2013-02-19 18:40:00,42.4,17.0,30.22,NW,318,2.0,-999.0,36,-99.99,,,0.05,weatherlink.com 1.10,2013-02-20 00:40:00,
2013-02-19 18:55:00,41.9,18.0,30.22,NNW,329,0.0,-999.0,38,-99.99,,,0.05,weatherlink.com 1.10,2013-02-20 00:55:00,
2013-02-19 19:10:00,41.8,18.0,30.22,WNW,301,0.0,-999.0,38,-99.99,,,0.05,weatherlink.com 1.10,2013-02-20 01:10:00,
2013-02-19 19:25:00,41.1,18.0,30.23,NW,326,3.0,-999.0,39,-99.99,,,0.05,weatherlink.com 1.10,2013-02-20 01:25:00,
2013-02-19 19:40:00,40.9,18.0,30.23,NNW,338,0.0,-999.0,39,-99.99,,,0.05,weatherlink.com 1.10,2013-02-20 01:40:00,
2013-02-19 19:55:00,40.3,18.0,30.23,NNW,340,0.0,-999.0,41,-99.99,,,0.05,weatherlink.com 1.10,2013-02-20 01:55:00,
2013-02-19 20:10:00,39.9,18.0,30.23,NNW,340,3.0,-999.0,41,-99.99,,,0.05,weatherlink.com 1.10,2013-02-20 02:10:00,
2013-02-19 20:25:00,39.5,18.0,30.24,NNW,338,0.0,-999.0,42,-99.99,,,0.05,weatherlink.com 1.10,2013-02-20 02:25:00,
2013-02-19 20:40:00,38.9,18.0,30.25,NNW,340,1.0,-999.0,43,-99.99,,,0.05,weatherlink.com 1.10,2013-02-20 02:40:00,
2013-02-19 20:55:00,39.1,19.0,30.26,NNW,334,3.0,-999.0,44,-99.99,,,0.05,weatherlink.com 1.10,2013-02-20 02:55:00,
2013-02-19 21:10:00,38.6,20.0,30.28,NNW,339,3.0,-999.0,47,-99.99,,,0.05,weatherlink.com 1.10,2013-02-20 03:10:00,
2013-02-19 21:25:00,38.3,20.0,30.28,NNW,338,6.0,-999.0,48,-99.99,,,0.05,weatherlink.com 1.10,2013-02-20 03:25:00,
2013-02-19 21:40:00,38.0,21.0,30.29,NNW,340,6.0,-999.0,50,-99.99,,,0.05,weatherlink.com 1.10,2013-02-20 03:40:00,
2013-02-19 21:55:00,37.6,21.0,30.28,NW,324,8.0,-999.0,51,-99.99,,,0.05,weatherlink.com 1.10,2013-02-20 03:55:00,
2013-02-19 22:11:00,37.4,21.0,30.28,NNW,342,2.0,-999.0,52,-99.99,,,0.05,weatherlink.com 1.10,2013-02-20 04:11:00,
2013-02-19 22:25:00,37.0,21.0,30.28,NNW,328,5.0,-999.0,53,-99.99,,,0.05,weatherlink.com 1.10,2013-02-20 04:25:00,
2013-02-19 22:41:00,36.9,21.0,30.28,NNW,336,3.0,-999.0,54,-99.99,,,0.05,weatherlink.com 1.10,2013-02-20 04:41:00,
2013-02-19 22:55:00,36.5,21.0,30.28,NNW,339,6.0,-999.0,54,-99.99,,,0.05,weatherlink.com 1.10,2013-02-20 04:55:00,
2013-02-19 23:10:00,36.2,21.0,30.29,NNW,336,5.0,-999.0,55,-99.99,,,0.05,weatherlink.com 1.10,2013-02-20 05:10:00,
2013-02-19 23:25:00,35.9,21.0,30.29,North,350,0.0,-999.0,56,-99.99,,,0.05,weatherlink.com 1.10,2013-02-20 05:25:00,
2013-02-19 23:40:00,35.5,21.0,30.29,NNW,331,0.0,-999.0,56,-99.99,,,0.05,weatherlink.com 1.10,2013-02-20 05:40:00,
2013-02-19 23:56:00,35.3,21.0,30.29,NNW,340,0.0,-999.0,56,-99.99,,,0.05,weatherlink.com 1.10,2013-02-20 05:56:00,